Meteo Giornale » Osservazioni meteo Svezia » Hemavan
ore: 20:20 - Osservazioni Meteo Hemavan
Lat. 65° 48' N Lon. 15° 5' E Alt. 463 metri s.l.m.
11 °C
Pioggia
Temp. 24 Ore
5 °C
14 °C
Nord
3.7 Km/h
Dew point 11 °C
Umidità 100 %
Visibilità 10 Km
Il sole sorge alle ore 05:32
Il sole tramonta alle ore 20:27
| Data e Ora | Cielo e Fenomeni | T °C | DP °C | Um. % | Pres. hPa | Vis. km | Vento km/h | |
|---|---|---|---|---|---|---|---|---|
| Oggi h: 20:20 | Pioggia | 11 | 11 | 100 | 1004 | 10 | N 3.7 | |
| Oggi h: 19:50 | Pioggia | 11 | 11 | 100 | 1004 | 10 | N 3.7 | |
| Oggi h: 19:20 | Pioggia | 11 | 11 | 100 | 1004 | 10 | S/SE 7.4 | |
| Oggi h: 18:50 | Pioggia | 11 | 11 | 100 | 1004 | 10 | N 5.5 | |
| Oggi h: 18:20 | Pioggia | 12 | 11 | 93 | 1004 | 10 | N 5.5 | |
| Oggi h: 17:50 | Pioggia | 12 | 10 | 87 | 1004 | 10 | N 1.8 | |
| Oggi h: 17:20 | Pioggia | 12 | 10 | 87 | 1004 | 10 | N 3.7 | |
| Oggi h: 16:50 | Pioggia | 13 | 10 | 81 | 1004 | 10 | N 5.5 | |
| Oggi h: 16:20 | Pioggia | 13 | 10 | 81 | 1004 | 10 | NO 9.3 | |
| Oggi h: 15:50 | Pioggia | 13 | 9 | 76 | 1004 | 10 | N 3.7 | |
| Oggi h: 15:20 | Pioggia | 13 | 9 | 76 | 1004 | 10 | N 1.8 | |
| Oggi h: 14:50 | Coperto | 13 | 8 | 71 | 1004 | 10 | N 1.8 | |
| Oggi h: 14:20 | Coperto | 14 | 8 | 67 | 1004 | 10 | N 3.7 | |
| Oggi h: 13:50 | Coperto | 14 | 9 | 71 | 1004 | 10 | N 1.8 | |
| Oggi h: 13:20 | Coperto | 13 | 9 | 76 | 1004 | 10 | N 3.7 | |
| Oggi h: 12:50 | Coperto | 13 | 9 | 76 | 1004 | 10 | N 0 | |
| Oggi h: 12:20 | Coperto | 12 | 9 | 81 | 1004 | 10 | N 5.5 | |
| Oggi h: 11:50 | Pioggia | 12 | 9 | 81 | 1004 | 10 | N 5.5 | |
| Oggi h: 11:20 | Pioggia | 11 | 9 | 87 | 1004 | 10 | N 3.7 | |
| Oggi h: 10:50 | Coperto | 11 | 9 | 87 | 1004 | 10 | N 3.7 | |
| Oggi h: 10:20 | Coperto | 11 | 9 | 87 | 1004 | 10 | N 5.5 | |
| Oggi h: 09:50 | Coperto | 10 | 9 | 93 | 1004 | 10 | N 5.5 | |
| Oggi h: 09:20 | Coperto | 10 | 9 | 93 | 1004 | 10 | N 5.5 | |
| Oggi h: 08:50 | Coperto | 9 | 9 | 100 | 1004 | 10 | SE 7.4 | |
| Oggi h: 08:20 | Coperto | 9 | 9 | 100 | 1004 | 10 | SE 7.4 | |
| Oggi h: 07:50 | Coperto | 9 | 8 | 93 | 1004 | 10 | N 5.5 | |
| Oggi h: 07:20 | Coperto | 8 | 8 | 100 | 1004 | 10 | N 5.5 | |
| Oggi h: 06:50 | Coperto | 8 | 8 | 100 | 1004 | 10 | N 3.7 | |
| Oggi h: 06:20 | Coperto | 7 | 7 | 100 | 1004 | 10 | N 5.5 | |
| Oggi h: 05:50 | Coperto | 7 | 7 | 100 | 1004 | 10 | N 3.7 | |
| Oggi h: 05:20 | Coperto | 7 | 7 | 100 | 1004 | 10 | N 0 | |
| Oggi h: 04:50 | Coperto | 7 | 7 | 100 | 1004 | 10 | N 0 | |
| Oggi h: 04:20 | Coperto | 7 | 7 | 100 | 1004 | 10 | N 3.7 | |
| Oggi h: 03:50 | Coperto | 6 | 6 | 100 | 1004 | 10 | N 3.7 | |
| Oggi h: 03:20 | Coperto | 6 | 6 | 100 | 1004 | 10 | N 5.5 | |
| Oggi h: 02:50 | Coperto | 6 | 6 | 100 | 1004 | 0.65 | N 5.5 | |
| Oggi h: 02:20 | Nebbia | 6 | 6 | 100 | 1004 | 0.7 | N 3.7 | |
| Oggi h: 01:50 | Nebbia | 5 | 5 | 100 | 1004 | 0.2 | N 3.7 | |
| Oggi h: 01:20 | Coperto | 5 | 5 | 100 | 1004 | 10 | N 0 | |
| Oggi h: 00:50 | Coperto | 5 | 5 | 100 | 1003 | 0.8 | N 0 | |
| Oggi h: 00:20 | Poco Nuvoloso | 5 | 5 | 100 | 1003 | 0.8 | N 3.7 | |
| Ieri h: 23:50 | Nebbia | 5 | 5 | 100 | 1003 | 0.75 | N 1.8 | |
| Ieri h: 23:20 | Sereno | 6 | 6 | 100 | 1003 | 10 | N 3.7 | |
| Ieri h: 22:50 | Poco Nuvoloso | 6 | 6 | 100 | 1003 | 10 | N 5.5 | |
| Ieri h: 22:20 | Sereno | 7 | 7 | 100 | 1003 | 10 | N 5.5 | |
| Ieri h: 21:50 | Poco Nuvoloso | 8 | 8 | 100 | 1002 | 10 | N 3.7 | |
| Ieri h: 21:20 | Poco Nuvoloso | 8 | 8 | 100 | 1002 | 10 | N 3.7 | |
| Ieri h: 20:50 | Poco Nuvoloso | 10 | 9 | 93 | 1002 | 10 | N 3.7 | |



